Regional Weather Roundup
Issued by NWS

Home | Current Version | Previous Version | Text Only | Print | Product List | Glossary On
Versions: 1 2 3 4 5 6 7 8 9 10 11 12 13 14 15 16 17 18 19 20 21 22 23 24 25 26 27 28 29 30 31 32 33 34 35 36 37 38 39 40 41 42 43 44 45 46 47 48 49 50
000
ASUS44 KJAN 260110
RWRMS

MISSISSIPPI HOURLY WEATHER ROUNDUP
NATIONAL WEATHER SERVICE JACKSON MS
800 PM CDT SAT JUN 25 2016

NOTE: "FAIR: INDICATES FEW OR NO CLOUDS BELOW 12,000 FEET WITH NO
SIGNIFICANT WEATHER AND/OR OBSTRUCTIONS TO VISIBILITY.

MSZ001>002-007>008-010>013-018>021-025>028-034>036-260200-
NORTHWEST MISSISSIPPI

CITY           SKY/WX    TMP DP  RH WIND       PRES   REMARKS
CLEVELAND      FAIR      85  80  83 SW3       30.02S HX  99
GREENWOOD      CLEAR     84  75  74 NW3       30.03R HX  92
GREENVILLE     CLEAR     90  71  53 W3        30.02S HX  96
OXFORD         FAIR      84  68  58 CALM      30.07S
WINONA         FAIR      87  73  62 CALM      30.04S HX  94
$$

MSZ003>006-009-014>017-022>024-029>033-037>039-260200-
NORTHEAST MISSISSIPPI

CITY           SKY/WX    TMP DP  RH WIND       PRES   REMARKS
ABERDEEN       FAIR      88  70  55 CALM      30.04R HX  92
COLUMBUS AFB   CLEAR     87  80  79 SW2       30.02R HX 103
STARKVILLE     FAIR      84  73  70 CALM      30.03R HX  91
TUPELO         CLEAR     90  68  48 NW5       30.03R HX  94
$$

MSZ040-058-260200-
CENTRAL MISSISSIPPI

CITY           SKY/WX    TMP DP  RH WIND       PRES   REMARKS
JACKSON INTL   PTCLDY    86  72  62 N6        30.04R HX  92
JACKSON HAWKNS PTCLDY    86  72  62 W5        30.05R HX  92
MADISON        FAIR      82  70  65 CALM      30.04S
MERIDIAN KEY   CLEAR     90  73  57 CALM      30.03R HX  98
MERIDIAN NAS   CLEAR     88  71  57 CALM      30.03S HX  94
VICKSBURG VKS  CLEAR     86  75  70 CALM      30.03S HX  95
$$

MSZ059>079-260200-
SOUTH MISSISSIPPI

CITY           SKY/WX    TMP DP  RH WIND       PRES   REMARKS
BROOKHAVEN     FAIR     N/A N/A N/A CALM      30.06S
HATTIESBURG    CLEAR     85  75  72 CALM      30.03R HX  93
MCCOMB         CLEAR     88  71  57 W3        30.05R HX  94
NATCHEZ        NOT AVBL
PINE BELT      CLEAR     86 N/A N/A CALM      30.06R
$$

MSZ080>082-260200-
COASTAL MISSISSIPPI

CITY           SKY/WX    TMP DP  RH WIND       PRES   REMARKS
BAY ST LOUIS   CLEAR     81  72  74 CALM      30.04R
BILOXI         CLEAR     86  73  66 SW9       30.03S HX  93
PASCAGOULA     CLEAR     84  73  69 SW3       30.04R HX  90
GULFPORT       CLEAR     86  72  62 S5        30.03S HX  92
$$

LAZ007>009-015>016-023>026-260200-
NORTHEAST LOUISIANA

CITY           SKY/WX    TMP DP  RH WIND       PRES   REMARKS
BASTROP        FAIR      84  78  80 CALM      30.04R HX  95
TALLULAH/VBURG CLEAR     84  76  76 CALM      30.03S HX  93
VIDALIA        FAIR      86  78  76 CALM      30.06S HX  98
$$




USA.gov is the U.S. government's official web portal to all federal, state and local government web resources and services.